Opa Locka, FL

12:42 PM EDT on March 23, 2017 (GMT -0400)
Opa Locka

Weather History for KOPF - March, 2014

Change the Weather History Date:

Wednesday, March 26, 2014

  Actual Average Record
Temperature  
Mean Temperature 63 °F -  
Max Temperature 72 °F 81 °F 90 °F (1975)
Min Temperature 55 °F 65 °F 50 °F (1956)
Degree Days  
Heating Degree Days 2    
Growing Degree Days 13 (Base 50)    
Moisture  
Dew Point 45 °F    
Average Humidity 52    
Maximum Humidity 70    
Minimum Humidity 34    
Precipitation  
Precipitation 0.00 in - - ()
Sea Level Pressure  
Sea Level Pressure 30.18 in    
Wind  
Wind Speed 14 mph (North)    
Max Wind Speed 20 mph    
Max Gust Speed 33 mph    
Visibility 10 miles    
Events      
Averages and records for this station are not official NWS values.
T = Trace of Precipitation, MM = Missing Value Source: NWS Daily Summary

Daily Weather History Graph

Daily Weather History Graph

Search for Another Location

Airport or City:

Trip Planner

Search our weather history database for the weather conditions in past years. The results will help you decide how hot, cold, wet, or windy it might be!

Date:

Astronomy

Mar. 26, 2014 Rise Set
Actual Time 7:18 AM EDT 7:35 PM EDT
Civil Twilight 6:55 AM EDT 7:58 PM EDT
Nautical Twilight 6:28 AM EDT 8:25 PM EDT
Astronomical Twilight 6:01 AM EDT 8:52 PM EDT
Moon 4:01 AM EDT (3/26) 3:34 PM EDT (3/26)
Length of Visible Light 13h 02m
Length of Day
12h 16m
Waning Crescent, 22% of the Moon is Illuminated
Mar 26
Waning Crescent
Mar 30
New
Apr 7
First Quarter
Apr 15
Full
Apr 22
Last Quarter

Hourly Weather History & Observations

Time (EDT) Temp. Dew Point Humidity Pressure Visibility Wind Dir Wind Speed Gust Speed Precip Events Conditions
12:53 AM 63.0 °F 48.9 °F 60% 30.05 in 10.0 mi NW 19.6 mph 33.4 mph N/A   Clear
1:53 AM 62.1 °F 46.9 °F 58% 30.06 in 10.0 mi NW 15.0 mph 24.2 mph N/A   Clear
2:53 AM 60.1 °F 46.0 °F 60% 30.06 in 10.0 mi NNW 13.8 mph 24.2 mph N/A   Clear
3:53 AM 60.1 °F 46.0 °F 60% 30.07 in 10.0 mi NNW 15.0 mph - N/A   Clear
4:53 AM 57.9 °F 46.0 °F 65% 30.08 in 10.0 mi NNW 12.7 mph - N/A   Clear
5:53 AM 57.0 °F 41.0 °F 55% 30.10 in 10.0 mi North 13.8 mph - N/A   Clear
6:53 AM 55.9 °F 36.0 °F 47% 30.13 in 10.0 mi North 11.5 mph 21.9 mph N/A   Clear
7:53 AM 55.9 °F 35.1 °F 45% 30.15 in 10.0 mi North 10.4 mph - N/A   Clear
8:53 AM 57.9 °F 37.9 °F 47% 30.19 in 10.0 mi North 13.8 mph - N/A   Clear
9:53 AM 60.1 °F 37.9 °F 44% 30.21 in 10.0 mi North 16.1 mph 27.6 mph N/A   Clear
10:53 AM 63.0 °F 37.9 °F 40% 30.24 in 10.0 mi North 15.0 mph 23.0 mph N/A   Clear
11:53 AM 66.0 °F 39.0 °F 37% 30.24 in 10.0 mi NNE 12.7 mph 23.0 mph N/A   Clear
12:53 PM 68.0 °F 39.9 °F 36% 30.22 in 10.0 mi NNE 13.8 mph - N/A   Clear
1:53 PM 71.1 °F 41.0 °F 34% 30.20 in 10.0 mi NNE 13.8 mph 23.0 mph N/A   Clear
2:53 PM 71.1 °F 45.0 °F 39% 30.19 in 10.0 mi NE 12.7 mph 21.9 mph N/A   Clear
3:53 PM 71.1 °F 48.0 °F 44% 30.20 in 10.0 mi NE 16.1 mph 20.7 mph N/A   Partly Cloudy
4:53 PM 69.1 °F 48.9 °F 49% 30.20 in 10.0 mi NE 11.5 mph - N/A   Scattered Clouds
5:53 PM 69.1 °F 51.1 °F 53% 30.20 in 10.0 mi NE 15.0 mph - N/A   Partly Cloudy
6:53 PM 66.9 °F 51.1 °F 57% 30.22 in 10.0 mi NE 11.5 mph - N/A   Partly Cloudy
7:53 PM 66.0 °F 50.0 °F 56% 30.23 in 10.0 mi NNE 8.1 mph - N/A   Clear
8:53 PM 64.9 °F 52.0 °F 63% 30.24 in 10.0 mi NNE 10.4 mph - N/A   Mostly Cloudy
9:53 PM 64.0 °F 52.0 °F 65% 30.25 in 10.0 mi NNE 8.1 mph - N/A   Scattered Clouds
10:53 PM 62.1 °F 51.1 °F 67% 30.26 in 10.0 mi North 8.1 mph - N/A   Scattered Clouds
11:53 PM 61.0 °F 51.1 °F 70% 30.25 in 10.0 mi NNE 8.1 mph - N/A   Scattered Clouds